FENGYUN 1C DEB, 30718

Orbit data source: Space-Track

FENGYUN 1C DEB, 30718 is space debris in SSO originally from a launch on Mon, 10 May 1999 UTC launched from the Taiyaun Space Center, China (TSC). Fengyun 1C debris stems from the Chinese weather satellite Fengyun-1C, which was intentionally destroyed by a Chinese anti-satellite missile in 2007. This event dramatically increased the amount of space debris, with thousands of trackable fragments posing hazards to satellites and human spaceflight. The Fengyun 1C debris cloud has become a focal point in discussions about space sustainability and the need for international regulations to prevent the creation of new debris.

Loading next visibility...
Identifier
30718, 1999-025ASC
Orbit
SSO
Country
Flag of CNCN / PRC
Related business
Manufacturer
Unknown
Mission
Spacecraft
Bus & Motor
Unknown
Mass
Unknown
Launch date (UTC)
1999-05-10 (27 years ago)
Launch vehicle
Unknown
Launch site
Taiyaun Space Center, China (TSC)
Object type
Payload
Rocket body
Debris
Shape & HBR
Unknown shape, 0.1 m
Radar Cross Section
Small (<0.1 m²)

Expand to show TLE details & history
Last TLE update: 5 hours ago

TLE from 5 hours ago
0 FENGYUN 1C DEB
1 30718U 99025ASC 26123.19017006  .00003825  00000-0  16132-2 0  9995
2 30718  98.8810 210.2909 0058033 109.7767 250.9682 14.25342902987888
Epoch: 2026-05-03T04:33Z
TLE epoch observation values (Epoch: 2026-05-03T04:33:50.693Z)
Latitude
-0.00003°
Longitude
-79.2676°
Altitude
824.073 km
Speed
7.434 km/s
True Right ascension
14h 01m 09s
True Declination
0° 00' 00"
Sunlit
Object was in full shadow at epoch
Visualization orbit readout
Latitude
Unknown
Longitude
Unknown
Altitude
Unknown
Speed
Unknown
Apparent Right ascension
Unknown
Apparent Declination
Unknown
Sunlit
N/A
Visualization observer readout
Local Sidereal Time
17:26:15
Azimuth
Unknown
Elevation
Unknown
Doppler factor
Unknown
Orbital elements
Apogee altitude
846.183 km
Perigee altitude
762.817 km
Semi-major axis
7,182.637 km
Eccentricity
0.0058
Inclination
98.881°
RAAN
210.2909°
Arg. of periapsis
109.7767°
True anomaly
250.34104°
Mean anomaly
250.9682°
Eccentric anomaly
250.65447°
Mean motion
3.56547 °/min
Orbital period
100.97 mins
BSTAR
0.0016132
Loading maneuver chart data...
Computing Atmospheric mass density...

Documentation

Showing up to 5 results
|